Location: Suzhou
(31.3110°N, 120.6180°E)
Time: 16:19:33
(UTC+08:00)

NOAA 15 - Pass Details

Date: 29 May 2024
Orbit: 796 x 810 km, 98.6° (Epoch: 13 June)

Event Time Altitude Azimuth Distance (km) Brightness Sun altitude
Rises 20:16:54 0° 215° (SW) 3,285 7.8 -15.5°
Reaches altitude 10° 20:21:01 10° 248° (WSW) 2,361 7.4 -16.2°
Maximum altitude 20:22:44 12° 267° (W) 2,254 7.6 -16.5°
Drops below altitude 10° 20:24:28 10° 287° (WNW) 2,365 8.1 -16.8°
Sets 20:28:38 0° 319° (NW) 3,302 9.4 -17.5°
